STARLINK-36485, 67312

Orbit data source: Space-Track

STARLINK-36485, 67312 is a payload satellite owned by SpaceX/Seattle (US) in LEO that was launched on Sun, 04 Jan 2026 UTC via an FALCON 9 launch vehicle from the Air Force Eastern Test Range (AFETR). Payload-class satellites include a variety of spacecraft equipped with specific instruments for various scientific and technological missions. These include communications satellites like Starlink; space stations such as the ISS; scientific satellites like the Hubble; Earth observation satellites from companies like Planet Labs, Umbra, and HawkEye 360; GPS; miniature CubeSats for education and research; and military/defense satellites.

Loading next visibility...
Identifier
67312, 2026-002H
Orbit
LEO
Country
Flag of USUS
Related business
Manufacturer
SpaceX/Seattle
Mission
Operational Commercial Communications
Bus & Motor
STARLINK V2MO, Unknown motor
Mass
575 kg wet, ~530 kg dry
Launch date (UTC)
2026-01-04 (2 months ago)
Launch vehicle
FALCON 9
Launch site
Air Force Eastern Test Range (AFETR)
Object type
Payload
Rocket body
Debris
Shape & HBR
Box + 2 Pan, 17.7 m
Radar Cross Section
36.964 m²

Expand to show TLE details & history
Last TLE update: 1 day ago

TLE from 1 day ago
0 STARLINK-36485
1 67312U 26002H   26062.15341687  .00034535  00000-0  12574-2 0  9991
2 67312  43.0060   1.7996 0002226 242.4537 117.6089 15.27610105 10084
Epoch: 2026-03-03T03:40Z
TLE epoch observation values (Epoch: 2026-03-03T03:40:55.217Z)
Latitude
-0°
Longitude
145.63296°
Altitude
483.443 km
Speed
7.625 km/s
True Right ascension
00h 07m 11s
True Declination
0° 00' 00"
Sunlit
Object was in daylight at epoch
Visualization orbit readout
Latitude
Unknown
Longitude
Unknown
Altitude
Unknown
Speed
Unknown
Apparent Right ascension
Unknown
Apparent Declination
Unknown
Sunlit
N/A
Visualization observer readout
Local Sidereal Time
09:13:43
Azimuth
Unknown
Elevation
Unknown
Doppler factor
Unknown
Orbital elements
Apogee altitude
486.431 km
Perigee altitude
483.375 km
Semi-major axis
6,863.04 km
Eccentricity
0.00022
Inclination
43.006°
RAAN
1.7996°
Arg. of periapsis
242.4537°
True anomaly
117.6315°
Mean anomaly
117.6089°
Eccentric anomaly
117.6202°
Mean motion
3.81741 °/min
Orbital period
94.3 mins
BSTAR
0.0012574
Loading maneuver chart data...
Computing Atmospheric mass density...
Loading historical data...
Loading historical data...
Loading historical data...
Loading historical data...
Loading historical data...
Loading historical data...
Loading historical data...

Documentation

Showing up to 5 results
|